Weather in Llucmajor

Spain     39°29′09″N   2°53′23″E
temp.,
°C
wind,
m/s
gust,
m/s
humid.,
%
clouds,
%
prec.,
mm/h
press.,
hPa
HPBL,
m
27 october, wed
wed2723:00+15nne227397 0.0 102315
02:00+14nne22770 0.0 102215
05:00+14n22770 0.0 102213
08:00+13nnw22793 0.0 102213
11:00+19nnw235911 0.0 1022629
14:00+19nne556253 0.4 1021948
17:00+19nne56608 0.3 1020969
20:00+15nne36792 0.3 1020117
28 october, thu
thu2823:00+14n22810 0.0 102017
02:00+14nnw11850 0.0 101911
05:00+13nnw11863 0.0 101810
08:00+13wnw11855 0.0 101810
11:00+18w116563 0.0 1018389
14:00+20sw325236 0.0 10171400
17:00+19sw436185 0.1 1016899
20:00+16sw227686 0.3 101726
29 october, fri
fri2923:00+15w22832 1.4 101712
02:00+14wnw11860 1.4 101610
05:00+13wnw118786 0.1 101510
08:00+13nnw0189100 0.4 101510
11:00+19sw3568100 0.0 1016543
14:00+21sw5655100 0.0 10151147
17:00+20sw6765100 0.0 10141064
20:00+18sw367499 0.8 1015140
30 october, sat
sat3023:00+17wsw2382100 0.2 101631
02:00+17sw3480100 0.3 101556
05:00+17ssw3677100 0.1 1015130
08:00+17ssw3783100 0.3 1015146
11:00+20sw5872100 0.3 1016607
14:00+20sw6870100 0.6 1015752
17:00+19sw4780100 0.0 1014446
20:00+19sw4887100 0.0 1015269
31 october, sun
sun3123:00+19sw488596 0.0 1015285
02:00+19sw61086100 0.0 1014398
04:00+19sw6108898 0.0 1013460
07:00+20sw81492100 0.0 1013506
10:00+23wsw9157023 0.0 10131122
13:00+25wsw111459100 0.0 10121149
16:00+24wsw8136674 0.0 10121085
19:00+21wsw6148344 0.0 1012556